Preview of NWS' New Version of Forecast
This preview is not operational and should not be used for support decisions.

Regional Weather Roundup (RWR)

Issued by National Weather Service (NWS)

                            
000
ASUS43 KDTX 180001
RWRMI 
MICHIGAN HOURLY REGIONAL WEATHER ROUNDUP
NATIONAL WEATHER SERVICE DETROIT/PONTIAC MI
700 PM EST SUN FEB 17 2019

NOTE: "FAIR" INDICATES FEW OR NO CLOUDS BELOW 12,000 FEET WITH NO
SIGNIFICANT WEATHER AND/OR OBSTRUCTION TO VISIBILITY.

MIZ047>049-052>055-059>063-066>070-074>076-081>083-180100-
SOUTHEAST LOWER MICHIGAN
  
CITY           SKY/WX    TMP DP  RH WIND       PRES   REMARKS
ADRIAN         LGT SNOW  23  20  88 E12       29.82R FOG     WCI  12  
6HR MIN TEMP:  23; 6HR MAX TEMP:  25; 6HR PCP:  0.01;                

ALMA           CLOUDY    23  17  77 NE15      29.91R WCI  10          
6HR MIN TEMP:  23; 6HR MAX TEMP:  25;                                

ANN ARBOR      SNOW      22  20  92 N10       29.83R VSB 1/2 WCI  11  
BAD AXE        CLOUDY    22  15  74 NE10      29.90R WCI  11          
6HR MIN TEMP:  22; 6HR MAX TEMP:  24;                                

CARO           CLOUDY    23  17  78 NE8       29.90R WCI  13          
DETROIT CITY   HVY SNOW  23  20  88 NE12      29.85R VSB 1/4 WCI  12  
6HR MIN TEMP:  24; 6HR MAX TEMP:  26; 6HR PCP:  0.03;                

DETROIT        LGT SNOW  24  20  84 NE7       29.84S VSB 3/4 WCI  16  
6HR MIN TEMP:  24; 6HR MAX TEMP:  27; 6HR PCP:  0.07;                

FLINT          LGT SNOW  22  18  85 NE12      29.88R FOG     WCI  10  
6HR MIN TEMP:  22; 6HR MAX TEMP:  25; 6HR PCP:  0.06;                

GROSSE ILE     LGT SNOW  25  22  89 NE13      29.83R WCI  13          
6HR MIN TEMP:  25; 6HR MAX TEMP:  28;                                

HILLSDALE      LGT SNOW  23  19  85 NE6       29.80R WCI  16          
6HR MIN TEMP:  23; 6HR MAX TEMP:  26; 6HR PCP:  0.03;                

HOWELL         LGT SNOW  22  20  91 NE5       29.84R WCI  16          
6HR MIN TEMP:  22; 6HR MAX TEMP:  26;                                


CITY           SKY/WX    TMP DP  RH WIND       PRES   REMARKS
JACKSON        LGT SNOW  22  20  92 NE10      29.82R VSB 3/4 WCI  11  
6HR MIN TEMP:  22; 6HR MAX TEMP:  26; 6HR PCP:  0.04;                

LAMBERTVILLE   LGT SNOW  25  23  91 NE9G18    29.82S WCI  16          
6HR MIN TEMP:  25; 6HR MAX TEMP:  28;                                

LANSING        LGT SNOW  22  18  85 NE12      29.87R FOG     WCI  10  
6HR MIN TEMP:  22; 6HR MAX TEMP:  23; 6HR PCP:  0.07;                

LAPEER         FLURRIES  23  18  80 NE6G18    29.87R WCI  16          
6HR MIN TEMP:  23; 6HR MAX TEMP:  26;                                

MASON          LGT SNOW  23  21  91 NE9       29.84R WCI  13          
6HR MIN TEMP:  23; 6HR MAX TEMP:  26;                                

MONROE         LGT SNOW  24  24  96 NE7       29.82F WCI  16          
6HR MIN TEMP:  24; 6HR MAX TEMP:  28;                                

MT. CLEMENS    LGT SNOW  24  23  97 NE10      29.84R WCI  13          
6HR MIN TEMP:  24; 6HR MAX TEMP:  26; 6HR PCP:  0.01;                

PONTIAC        LGT SNOW  22  19  89 NE8       29.82S VSB 1   WCI  12  
6HR MIN TEMP:  22; 6HR MAX TEMP:  24; 6HR PCP:  0.01;                

PORT HOPE        N/A     23  16  74 NE21      29.91S WCI   8          
6HR MIN TEMP:  23; 6HR MAX TEMP:  24;                                

PORT HURON     CLOUDY    25  19  80 NE9       29.87R WCI  15          
TRI CITIES     CLOUDY    23  16  74 NE17      29.91R WCI   9          
6HR MIN TEMP:  23; 6HR MAX TEMP:  25; 6HR PCP: TRACE;                

MIDLAND        FLURRIES  24  19  80 NE7       29.92R WCI  16          
6HR MIN TEMP:  24; 6HR MAX TEMP:  25;                                

TROY           SNOW      24  20  87 NE6       29.87R VSB 1/2 WCI  17  
SAGINAW HB     CLOUDY    23  18  80 NE16      29.90R WCI  10          
$$
MIZ043>046-050>051-056>058-064>065-071>073-077>080-180100-
SOUTHWEST LOWER MICHIGAN
  
CITY           SKY/WX    TMP DP  RH WIND       PRES   REMARKS
BATTLE CREEK   CLOUDY    24  19  81 NE8       29.85R HAZE    WCI  15  
6HR MIN TEMP:  24; 6HR MAX TEMP:  26; 6HR PCP: TRACE;                

BENTON HARBOR  CLOUDY    26  22  84 NE7       29.86R FOG     WCI  18  
6HR MIN TEMP:  26; 6HR MAX TEMP:  28; 6HR PCP:  0.01;                

BIG RAPIDS     FLURRIES  24  17  75 E7        29.90R WCI  15          
6HR MIN TEMP:  24; 6HR MAX TEMP:  27;                                

COLDWATER      LGT SNOW  25  23  93 NE3       29.84R                  
6HR MIN TEMP:  25; 6HR MAX TEMP:  28;                                

FREMONT        LGT SNOW  24  19  83 E6        29.90R WCI  17          
6HR MIN TEMP:  24; 6HR MAX TEMP:  28;                                

HOLLAND        LGT SNOW  25  17  72 E8        29.89R WCI  16          
6HR MIN TEMP:  23; 6HR MAX TEMP:  25; 6HR PCP:  0.03;                

GRAND RAPIDS   FLURRIES  23  17  78 NE15      29.88R WCI  10          
6HR MIN TEMP:  22; 6HR MAX TEMP:  24; 6HR PCP:  0.06;                

IONIA          CLOUDY    22  18  81 NE10      29.87R WCI  12          
6HR MIN TEMP:  22; 6HR MAX TEMP:  24;                                

KALAMAZOO      CLOUDY    25  20  81 VRB3      29.86R HAZE             
6HR MIN TEMP:  25; 6HR MAX TEMP:  27; 6HR PCP: TRACE;                

LUDINGTON      LGT SNOW  26  18  71 NE6       29.92R WCI  19          
6HR MIN TEMP:  26; 6HR MAX TEMP:  29;                                

MARSHALL       CLOUDY    24  24 100 CALM      29.85R                  
6HR MIN TEMP:  24; 6HR MAX TEMP:  27; 6HR PCP:  0.03;                

MOUNT PLEASANT CLOUDY    24  15  70 NE8G16    29.91R WCI  15          
6HR MIN TEMP:  24; 6HR MAX TEMP:  26;                                

MUSKEGON       LGT SNOW  24  18  77 NE7       29.91R WCI  16          
6HR MIN TEMP:  24; 6HR MAX TEMP:  26; 6HR PCP:  0.04;                

SOUTH HAVEN    CLOUDY    25  21  85 NE6       29.88R FOG     WCI  18  
$$
MIZ016>042-180100-
NORTHERN LOWER MICHIGAN
  
CITY           SKY/WX    TMP DP  RH WIND       PRES   REMARKS
ALPENA         CLOUDY    18  11  74 NE13      30.00S WCI   5          
6HR MIN TEMP:  18; 6HR MAX TEMP:  23; 6HR PCP: TRACE;                

BEAVER ISLAND  MOCLDY    17   8  68 NE7       30.03F WCI   7          
6HR MIN TEMP:  17; 6HR MAX TEMP:  19;                                

BELLAIRE       CLOUDY    22  12  64 NE12      29.99R WCI  11          
6HR MIN TEMP:  22; 6HR MAX TEMP:  26;                                

CADILLAC       CLOUDY    22  13  68 NE9       29.88R WCI  11          
CHARLEVOIX     CLOUDY    19  12  72 NE10      30.03R WCI   8          
6HR MIN TEMP:  19; 6HR MAX TEMP:  24;                                

FRANKFORT      CLOUDY    25  16  67 NE6       29.95R WCI  18          
GAYLORD        CLOUDY    15   9  76 NE12G21   29.93R WCI   2          
6HR MIN TEMP:  15; 6HR MAX TEMP:  22; 6HR PCP: TRACE;                

GRAYLING       CLOUDY    18  12  76 NE13      29.92R WCI   5          
6HR MIN TEMP:  18; 6HR MAX TEMP:  23; 6HR PCP: TRACE;                

HARBOR SPRINGS CLOUDY    18  10  73 NE8       30.01R WCI   7          
HOUGHTON LAKE  CLOUDY    20  12  71 NE16G22   29.91R WCI   6          
6HR MIN TEMP:  20; 6HR MAX TEMP:  23; 6HR PCP: TRACE;                

MANISTEE       CLOUDY    26  17  68 NE9       29.93R WCI  17          
OSCODA         CLOUDY    21  15  79 NE16      29.95R WCI   7          
6HR MIN TEMP:  21; 6HR MAX TEMP:  24;                                

PELLSTON       FAIR      16   7  67 NE8       30.03S WCI   5          
6HR MIN TEMP:  16; 6HR MAX TEMP:  23; 6HR PCP: TRACE;                

ROGERS CITY    CLOUDY    18  11  76 NE7       30.04R WCI   8          
TRAVERSE CITY  CLOUDY    25  14  63 NE12      29.95R WCI  14          
6HR MIN TEMP:  24; 6HR MAX TEMP:  27;                                

$$
MIZ007>008-015-180100-
EASTERN UPPER MICHIGAN
  
CITY           SKY/WX    TMP DP  RH WIND       PRES   REMARKS
KINROSS        MOCLDY    13   6  74 N6        30.04S WCI   4          
6HR MIN TEMP:  13; 6HR MAX TEMP:  24; 6HR PCP:  0.05;                

MACKINAC ISLAN MOCLDY    17   7  65 NE8       30.03S WCI   6          
6HR MIN TEMP:  17; 6HR MAX TEMP:  20;                                

NEWBERRY       FAIR      14   9  79 MISG      30.04S                  
6HR MIN TEMP:  14; 6HR MAX TEMP:  19;                                

S. S. MARIE    FAIR      15   7  70 CALM      30.05S                  
6HR MIN TEMP:  15; 6HR MAX TEMP:  21;                                

MUNISING         N/A     16  10  77 N3        30.08R                  
6HR MIN TEMP:  16; 6HR MAX TEMP:  25;                                

$$
MIZ004>006-011>014-085-180100-
CENTRAL UPPER MICHIGAN
  
CITY           SKY/WX    TMP DP  RH WIND       PRES   REMARKS
MANISTIQUE     FAIR      19  10  67 N7        30.04S WCI   9          
6HR MIN TEMP:  19; 6HR MAX TEMP:  22;                                

ESCANABA       CLOUDY    19  14  81 NE5       30.04R WCI  12          
6HR MIN TEMP:  19; 6HR MAX TEMP:  27;                                

MENOMINEE      CLOUDY    20  15  81 NE14      30.04R WCI   7          
6HR MIN TEMP:  20; 6HR MAX TEMP:  22; 6HR PCP: TRACE;                

SAWYER-GWINN   LGT SNOW  18  14  86 NE9       30.02R WCI   6          
$$
MIZ001>003-009>011-084-180100-
WESTERN UPPER MICHIGAN
  
CITY           SKY/WX    TMP DP  RH WIND       PRES   REMARKS
IRON MOUNTAIN  FLURRIES  19  13  77 N9        30.00R WCI   8          
6HR MIN TEMP:  19; 6HR MAX TEMP:  23; 6HR PCP: TRACE;                

HOUGHTON       CLOUDY    12   3  67 N8        30.11R WCI   0          
6HR MIN TEMP:  12; 6HR MAX TEMP:  21;                                

COPPER HARBOR    N/A     15   6  67 NE10      30.16R WCI   2          
6HR MIN TEMP:  14; 6HR MAX TEMP:  19;                                

IRONWOOD       LGT SNOW  13  10  88 N9        30.10R FOG     WCI   1  
6HR MIN TEMP:  13; 6HR MAX TEMP:  22;                                

$$

ABBREVIATIONS USED IN REMARKS
   TC - TEMPERATURE IN CELSIUS
  WCI - WIND CHILL INDEX
   HX - HEAT INDEX
  VSB - VISIBILITY